Wind_Speed
7 4 2 2 4 7 6 3 4 4 4 6 7 6 8 10 8 9 11 5 10 12 7 8 11 9 12 11 12 20 19 18 16 15 16 15 16 17 19 21 23 24 24 26 27 29 31 31 31 30 31 34 37 37 34 34 35 37 38 39 38 37 35 33 32 31 29 29 30 29 27 25 25 29 34 38 39 41 42 43 44 47 51 53 53 53
4 3 2 2 3 4 4 3 4 4 3 4 6 7 8 8 8 10 9 5 10 10 9 14 14 8 11 7 14 17 15 15 14 15 14 15 16 16 19 21 22 23 24 26 29 30 32 33 32 31 31 32 36 37 35 32 33 35 37 40 41 39 35 31 29 29 28 27 27 27 28 27 26 28 31 36 40 41 40 40 42 44 48 50 50 52
3 2 2 2 2 1 0 0 2 4 5 5 4 6 7 6 9 8 3 5 10 8 11 15 12 9 8 7 15 13 14 14 13 14 14 15 17 18 20 21 23 25 26 28 31 31 32 34 33 32 31 31 32 34 34 32 33 34 36 39 42 42 39 32 29 28 27 27 26 25 28 29 28 28 28 32 38 41 40 39 41 44 46 47 46 48
4 2 3 2 2 2 1 1 2 5 4 3 4 6 6 7 9 5 2 9 12 8 9 13 10 8 1 10 12 11 14 13 11 13 14 16 17 18 18 19 21 24 27 29 32 33 32 33 33 32 31 31 30 30 31 34 35 36 37 38 39 42 42 37 32 30 29 28 25 24 27 29 29 30 28 29 33 38 42 39 38 41 45 46 46 47
6 3 3 3 3 1 3 2 1 4 5 2 1 3 6 7 8 7 10 15 13 6 4 10 11 3 4 4 6 8 10 10 9 12 16 17 17 16 16 18 20 22 25 28 31 32 32 33 35 35 35 34 32 29 30 34 35 35 37 39 39 41 42 39 35 32 32 31 29 26 26 28 30 31 30 30 33 35 39 42 39 38 42 46 48 47
4 2 2 2 2 1 3 4 1 2 6 4 2 1 5 7 8 11 13 14 11 6 5 10 12 3 2 1 6 7 5 7 9 13 15 16 17 18 19 20 22 24 25 27 30 32 33 32 34 36 37 36 35 33 32 34 36 34 36 39 38 40 40 38 35 34 34 35 35 34 30 28 30 31 31 32 35 35 36 41 42 38 40 45 48 49
0 2 2 1 2 1 2 4 1 1 5 4 1 1 5 6 9 12 13 10 9 9 5 7 8 8 6 2 9 9 5 7 8 11 13 15 17 18 19 20 25 29 30 32 35 36 37 35 35 36 37 37 37 37 35 36 37 35 36 39 37 38 40 38 34 33 35 36 37 38 35 29 26 30 33 32 34 35 36 39 43 43 41 43 46 48
2 1 1 2 2 2 4 4 0 1 4 2 2 3 5 7 11 13 12 9 8 10 6 1 6 9 8 2 9 8 5 5 9 12 14 17 19 20 21 24 29 31 32 35 37 38 38 38 38 38 38 38 38 39 39 38 38 37 39 41 38 35 37 38 35 32 33 35 35 37 38 33 27 26 30 32 32 33 34 35 39 44 43 41 43 45
2 1 1 2 2 2 3 2 1 1 2 1 3 3 5 6 10 10 10 10 7 7 7 4 5 7 6 3 3 4 3 6 11 12 15 17 19 21 24 28 31 33 33 35 37 38 38 38 39 39 39 39 39 40 41 40 38 38 40 42 40 36 34 36 38 35 33 34 34 35 37 37 33 27 27 29 31 32 33 32 34 38 41 40 40 42
1 1 1 1 2 2 1 2 2 2 1 3 4 4 5 6 8 8 7 8 6 5 8 5 2 5 6 5 4 1 4 5 9 10 12 15 19 22 26 30 32 33 33 34 36 37 39 40 41 41 41 41 41 41 42 41 39 39 42 42 40 38 36 35 38 38 37 36 36 36 35 37 36 33 29 27 29 31 32 32 32 34 39 39 40 40
1 1 2 2 1 0 3 3 2 3 1 5 4 4 6 6 6 7 6 5 4 6 6 3 3 2 6 4 1 1 4 5 8 9 11 16 22 26 29 32 32 32 33 35 35 36 39 41 42 42 42 43 43 43 42 42 41 41 43 44 41 40 40 37 37 40 40 38 37 36 36 37 37 36 34 30 29 30 30 31 32 32 37 41 42 43
0 3 3 1 0 2 3 3 2 1 3 3 2 6 7 5 4 5 4 1 3 4 5 8 2 3 7 3 3 5 5 7 8 11 13 17 24 29 31 32 32 31 33 36 36 37 41 42 43 43 43 44 44 43 42 41 42 42 43 45 43 43 43 41 40 40 41 41 38 36 36 36 36 36 36 35 33 31 30 32 32 31 34 42 45 45
1 3 0 2 1 2 2 3 3 3 1 2 3 4 5 5 4 4 3 3 6 4 7 6 4 5 10 7 4 6 6 8 11 14 14 17 23 27 30 32 31 31 34 36 36 39 41 43 45 45 45 45 44 43 43 42 43 43 43 45 44 44 45 45 45 42 40 42 40 36 34 35 36 35 35 37 37 35 32 33 32 29 30 35 44 48
2 2 1 2 2 1 3 3 3 2 2 2 2 1 2 4 6 6 6 5 7 4 6 3 4 5 11 6 7 6 7 10 15 16 13 16 21 26 29 31 30 32 35 37 38 41 43 45 47 47 46 46 45 46 46 45 45 45 45 45 45 45 45 46 47 44 40 41 42 38 34 34 35 34 33 36 38 38 36 35 35 33 30 30 36 46
3 2 3 4 2 3 2 0 1 1 2 2 2 1 3 2 4 6 5 5 7 9 5 4 2 4 6 2 10 6 8 12 14 12 12 18 22 26 29 30 30 33 35 38 41 43 44 47 48 48 49 51 52 51 50 48 46 46 47 47 47 46 46 45 45 45 41 40 42 40 36 33 33 33 33 34 36 38 38 38 38 38 37 34 33 39
4 4 2 1 1 2 3 2 1 1 2 2 3 2 3 2 4 6 3 2 5 10 9 4 4 4 1 7 10 3 10 13 13 12 15 21 25 28 30 30 31 34 37 40 43 45 45 47 49 50 53 56 57 54 52 51 49 49 48 48 47 47 47 46 44 45 42 39 40 42 38 34 33 33 33 34 35 36 36 38 39 39 38 38 36 35
3 2 4 2 1 2 1 3 2 2 1 3 3 2 1 3 1 5 4 0 2 8 8 4 5 7 1 6 6 4 11 12 12 14 19 24 28 31 32 32 33 37 42 44 45 47 49 51 55 56 58 59 58 56 56 54 50 48 46 46 48 47 47 46 43 43 42 40 39 41 40 36 34 34 33 34 36 37 36 36 38 40 38 39 40 36
2 2 4 4 2 2 1 4 3 2 2 2 3 2 5 4 2 1 2 2 4 8 7 6 9 9 6 2 2 5 13 13 13 16 21 26 30 33 33 34 35 40 44 45 47 50 53 58 63 64 62 60 59 58 57 55 51 47 44 43 45 47 46 45 42 40 41 40 39 40 41 38 36 36 35 35 37 39 39 37 36 38 38 39 42 38
1 3 3 3 2 4 3 3 3 0 2 2 1 3 3 2 2 4 1 2 6 9 7 8 10 9 7 2 2 8 14 14 15 18 21 25 30 33 35 36 38 42 44 45 49 54 58 63 66 65 61 59 60 60 56 51 46 42 38 38 41 45 45 43 41 39 40 43 41 40 40 40 38 37 37 36 37 39 41 40 38 36 36 38 41 39
1 3 1 2 1 3 3 3 4 4 2 3 2 3 2 1 2 3 1 1 5 8 7 9 11 5 2 1 4 10 12 13 17 18 18 24 31 34 35 37 40 42 43 46 51 56 61 64 64 63 58 55 58 59 54 47 44 43 44 48 53 53 46 41 39 38 40 44 44 42 41 40 40 39 39 37 38 39 41 43 41 37 34 36 38 38
1 3 2 3 1 2 4 3 2 3 4 3 5 5 3 2 2 2 2 3 4 7 6 8 10 4 2 3 6 9 10 12 17 18 19 25 32 35 36 38 42 43 45 48 53 59 63 62 59 59 57 55 54 55 54 53 53 53 53 57 60 56 47 40 38 37 39 41 43 43 43 42 40 40 41 40 39 40 41 44 44 39 35 35 37 37
2 2 2 4 4 4 2 3 3 3 3 5 6 6 4 4 3 3 5 4 3 4 5 6 12 8 0 2 3 5 8 13 19 21 22 28 33 36 38 40 43 45 46 49 55 60 62 59 56 57 58 58 55 52 54 56 53 47 44 44 46 46 43 40 39 39 39 39 40 40 40 40 41 41 41 41 40 41 41 43 45 42 36 34 36 37
1 1 3 4 4 2 2 5 4 3 4 4 4 4 4 3 4 4 5 3 2 5 5 6 12 8 1 3 1 6 12 17 23 26 27 30 35 38 41 43 45 46 48 53 59 59 57 57 55 52 53 57 54 48 47 48 45 42 39 38 39 40 39 40 44 45 41 38 38 38 37 36 37 40 42 43 41 40 41 42 45 43 38 34 34 36
3 1 3 4 2 3 3 3 3 2 3 4 4 4 5 4 4 4 5 4 5 7 5 6 10 7 4 5 3 12 17 21 24 27 29 31 35 39 42 45 47 49 52 58 61 59 56 59 57 50 50 56 56 51 48 46 44 43 39 37 38 39 39 41 45 44 40 37 35 36 37 35 35 37 40 44 44 40 40 42 44 43 40 35 32 33
4 2 3 2 3 2 2 2 2 1 2 4 4 6 6 5 3 2 5 4 5 8 9 7 9 6 2 1 9 14 17 20 24 27 30 32 36 41 43 45 47 52 55 57 58 58 58 60 61 55 54 57 56 52 49 47 44 43 40 37 37 40 40 41 41 38 36 38 37 34 34 34 36 35 35 39 43 42 41 41 43 43 40 36 32 31
3 2 3 3 6 6 4 2 2 4 4 4 4 6 7 7 7 5 3 5 6 7 8 8 9 9 8 11 14 15 15 19 23 28 32 33 37 42 45 46 49 51 53 53 52 53 54 56 58 57 56 57 56 50 47 44 42 42 42 40 38 40 40 40 40 37 34 37 39 37 35 33 35 36 34 35 39 42 41 40 42 43 40 37 33 30
1 2 5 8 9 8 7 3 4 4 4 5 6 8 8 9 10 7 4 6 7 5 7 11 13 13 15 15 16 16 17 18 20 27 34 36 39 43 45 47 48 49 49 50 49 51 52 54 57 58 57 58 56 49 44 43 43 42 43 43 40 39 39 39 39 39 37 38 38 37 37 36 34 35 36 35 37 39 40 39 40 42 40 38 34 30
1 3 6 10 12 9 7 5 1 2 6 8 8 11 10 9 10 9 8 9 7 6 9 12 10 12 15 15 17 18 17 16 20 29 36 39 41 44 45 45 47 47 45 46 49 50 52 55 59 61 61 59 54 48 44 43 42 40 40 41 41 39 39 38 38 38 39 42 44 43 41 39 37 34 33 33 34 35 34 34 37 40 40 38 35 31
1 4 4 6 9 8 6 7 6 5 8 8 9 14 14 9 10 11 12 14 11 9 13 12 13 16 16 16 18 18 17 19 25 33 38 39 40 41 42 43 45 44 42 46 50 50 51 56 59 61 63 59 51 47 46 45 43 41 40 41 42 39 36 36 37 38 39 43 47 49 46 43 42 40 37 34 32 31 30 30 33 37 39 38 36 33
1 2 2 3 6 7 7 9 9 9 9 9 11 16 15 11 12 13 13 14 14 16 18 17 18 20 15 14 16 18 22 26 30 34 36 37 37 39 41 41 42 42 43 47 51 50 52 57 58 59 60 55 49 46 46 45 44 44 43 42 42 41 38 37 39 40 41 42 44 46 49 50 46 43 44 44 41 37 33 30 32 35 38 37 36 34
3 2 2 2 4 6 9 11 10 9 10 9 12 17 16 12 14 14 12 11 12 14 16 16 17 16 11 12 16 21 25 27 28 30 31 32 36 39 39 39 41 43 44 47 50 50 54 57 57 56 54 50 48 46 44 44 46 47 46 44 45 45 43 42 42 43 44 44 42 42 46 50 47 43 44 48 50 47 40 35 34 36 38 38 37 35
4 2 2 2 4 4 6 8 8 7 8 10 14 19 18 13 11 10 8 8 9 11 13 13 12 10 8 12 18 22 25 25 24 25 26 31 37 38 36 37 39 40 41 45 48 50 53 56 56 54 51 49 51 48 41 41 47 49 48 47 47 46 45 44 44 46 46 45 45 45 47 48 46 44 44 46 51 52 47 41 40 39 39 39 37 35
4 3 2 2 3 2 5 4 3 3 5 8 11 14 15 11 10 9 8 9 11 11 10 8 8 10 11 14 16 19 21 22 23 25 28 32 35 34 34 36 37 38 39 42 45 49 52 53 51 50 49 48 48 46 42 40 44 49 50 49 48 46 46 47 47 48 49 48 47 48 49 47 44 44 45 45 47 51 50 46 44 42 42 40 37 36
4 3 2 2 2 1 4 2 2 5 7 4 3 5 6 7 9 10 9 10 11 10 9 9 11 11 11 13 14 17 20 21 23 29 35 32 29 29 32 34 36 39 40 41 42 46 50 51 49 48 48 45 43 43 46 45 44 47 49 49 48 46 47 49 49 49 50 49 48 48 47 46 45 45 44 43 42 45 48 49 45 43 43 41 38 36
6 4 3 2 2 2 1 1 5 8 4 1 2 3 3 5 9 10 10 12 12 12 12 13 12 11 11 14 16 17 22 25 26 34 38 29 23 25 27 30 35 40 44 45 44 46 50 50 48 48 49 50 49 48 51 51 49 50 50 48 48 48 50 51 50 49 48 48 48 47 45 43 43 42 39 38 36 36 41 46 45 43 44 42 38 36
6 5 3 2 2 1 2 4 5 4 4 3 6 5 2 4 7 7 10 11 10 11 11 11 10 11 13 16 15 16 24 28 28 32 29 21 21 27 26 27 32 37 45 51 48 48 51 48 44 45 49 54 57 56 55 55 54 55 56 53 51 51 51 50 49 49 48 46 45 44 42 41 40 38 36 35 33 30 32 38 41 42 42 39 36 36
6 5 3 2 3 2 3 5 4 5 6 7 7 3 4 5 5 5 7 8 6 9 8 7 9 11 13 14 14 16 23 25 20 19 19 22 33 38 34 33 35 37 47 54 52 52 50 42 40 47 54 57 59 57 55 55 54 55 57 56 53 51 49 48 49 48 45 43 41 40 40 39 38 36 34 34 33 29 26 28 32 34 33 32 34 35
6 5 3 3 3 2 3 6 5 4 5 4 6 5 5 5 3 2 6 9 5 9 6 5 8 11 10 11 14 15 17 15 10 13 21 32 44 48 45 44 45 46 50 54 55 57 54 46 46 53 58 60 61 58 53 53 54 54 55 54 51 50 48 48 50 48 45 45 43 39 38 38 38 36 34 33 32 28 23 23 24 24 25 28 32 34
6 6 4 5 4 2 3 6 5 5 4 3 8 8 7 8 7 3 5 7 5 10 7 5 8 10 8 9 13 12 10 9 8 16 28 39 46 48 46 44 45 48 51 53 54 55 55 54 56 57 57 60 61 58 55 54 54 52 52 51 50 49 49 49 50 50 49 48 45 40 37 37 37 36 32 31 31 27 22 21 20 19 23 27 30 31
8 6 6 7 8 7 6 6 4 4 5 4 8 9 10 11 8 2 5 4 7 9 7 5 6 9 7 9 11 8 5 6 11 23 36 42 44 46 44 42 43 46 50 53 54 53 54 57 60 60 60 61 60 57 55 55 52 50 49 49 48 48 48 50 51 51 49 47 44 40 36 35 35 34 31 30 30 24 19 19 19 20 24 27 28 28
7 6 7 8 9 9 10 8 5 5 7 8 9 8 13 13 7 4 5 2 4 4 5 5 7 9 8 8 8 8 11 17 22 32 40 40 41 44 44 44 46 46 47 49 50 52 54 57 59 60 61 61 58 56 55 55 53 50 49 49 49 49 50 50 50 50 49 47 43 39 35 31 30 30 28 27 27 22 18 17 19 23 26 26 26 26
6 4 5 7 8 9 10 7 4 6 10 12 11 10 14 10 4 5 2 3 3 6 9 10 12 13 13 13 12 15 24 31 32 36 39 38 39 43 44 46 48 49 50 51 51 52 54 56 59 61 62 62 60 56 53 52 52 50 49 51 52 52 51 50 50 50 49 47 42 38 33 27 23 23 23 24 24 21 18 17 20 24 25 24 25 24
7 5 5 7 6 6 7 5 3 6 8 11 11 9 10 9 5 4 2 5 7 9 11 13 15 17 19 19 21 24 30 34 35 36 38 38 39 41 43 45 47 49 51 52 53 53 54 56 59 61 61 63 62 58 53 51 50 50 51 53 54 53 52 52 51 49 47 45 40 36 29 21 18 18 17 20 22 21 19 20 22 23 21 21 23 23
6 6 4 4 5 6 5 7 6 5 6 15 14 5 10 16 13 9 7 6 8 11 13 13 15 19 21 21 23 27 31 33 35 36 38 39 40 42 43 45 47 49 51 51 52 52 52 54 59 61 62 63 63 61 56 52 52 53 55 56 57 56 54 52 49 46 45 43 39 33 25 16 14 15 14 14 16 19 20 21 22 21 19 19 20 21
7 7 4 3 5 5 4 6 8 7 11 22 18 7 10 17 17 15 12 10 12 14 15 14 16 21 21 21 22 26 30 32 34 36 37 39 40 41 43 44 46 48 50 49 49 49 49 52 57 61 63 63 64 62 57 55 57 59 59 58 58 57 54 50 47 46 44 40 36 30 22 13 10 12 13 11 11 14 17 20 20 20 19 19 19 21
7 7 2 1 3 5 6 8 11 10 16 27 24 14 11 14 16 14 13 14 16 16 15 15 19 20 20 20 22 25 28 30 32 35 37 38 39 40 42 43 45 46 48 49 48 48 49 52 56 59 61 63 65 63 61 61 63 62 59 58 57 54 51 48 46 45 41 37 33 27 21 15 10 10 11 12 12 13 15 17 18 19 19 19 19 21
7 10 5 2 4 6 5 8 13 13 16 23 25 20 16 15 15 14 15 16 16 16 16 17 20 20 19 20 22 25 27 27 29 34 36 36 38 40 41 42 44 45 46 47 47 48 50 53 56 60 62 63 64 65 65 65 64 62 61 60 58 53 49 46 45 42 38 34 30 26 22 18 15 12 12 13 14 15 18 19 20 21 21 20 20 21
7 9 6 5 9 9 6 9 15 14 12 16 20 19 16 16 16 17 17 16 16 16 17 19 20 19 19 20 21 23 25 24 26 31 34 35 36 38 39 41 42 44 45 45 46 47 49 51 54 59 61 62 64 66 66 65 64 63 62 59 54 50 48 46 43 39 34 31 29 26 23 21 19 17 16 16 16 19 22 23 23 24 23 22 21 21
6 6 5 5 8 8 9 13 15 9 7 15 22 22 22 22 21 19 17 16 16 17 18 19 19 17 18 20 20 21 23 23 23 27 31 33 34 35 37 38 40 42 43 45 45 45 46 49 53 56 59 60 62 64 65 65 64 63 59 55 51 48 46 45 42 37 33 30 29 27 24 22 21 20 19 19 20 21 23 23 23 24 24 23 22 21
6 4 5 4 4 6 9 12 11 6 4 12 19 21 21 20 18 17 17 17 17 18 18 18 17 16 17 18 18 20 22 21 22 24 28 31 32 33 35 37 38 40 42 43 44 45 46 48 51 53 55 58 60 62 64 65 64 62 58 54 51 47 45 43 41 38 34 32 30 29 26 24 23 21 20 20 21 21 22 22 21 22 23 23 22 21
12 8 8 7 7 10 13 15 15 11 9 12 16 16 17 17 17 17 18 17 17 18 18 16 15 16 17 16 16 18 20 20 21 23 27 29 30 32 33 34 36 39 40 42 43 45 46 48 49 50 52 55 57 60 62 63 63 62 58 53 49 46 43 41 40 38 35 33 31 30 28 26 24 22 21 21 21 21 22 22 21 21 21 21 21 20
Wind_Direction
356 334 321 339 357 346 335 310 292 301 293 286 295 282 285 296 289 293 300 342 9 339 331 342 338 326 311 336 85 103 93 85 78 63 53 42 35 30 24 21 17 12 6 0 358 359 357 354 352 351 350 350 353 356 356 351 349 349 348 345 343 342 339 335 333 327 323 324 320 317 315 307 299 289 273 263 258 255 253 250 249 248 245 240 232 228
336 329 12 29 9 343 324 293 278 284 270 269 289 293 295 297 301 302 295 341 7 342 323 329 337 330 315 358 100 106 91 87 76 66 57 42 37 28 21 16 11 7 0 356 355 356 357 356 353 350 349 349 350 353 355 353 350 348 346 343 340 339 339 335 332 327 320 319 317 310 309 306 301 296 284 269 260 255 253 250 249 251 247 242 235 227
333 340 68 58 66 85 41 260 262 278 276 280 297 296 296 317 325 306 265 7 353 325 316 329 335 318 320 74 104 103 101 102 87 76 60 43 36 26 19 11 5 1 356 355 355 353 354 354 353 350 347 346 346 347 350 351 351 350 348 343 336 334 336 336 333 331 325 318 314 305 302 303 299 295 290 280 267 256 253 252 250 251 249 247 242 230
312 357 78 100 142 172 187 163 248 283 274 278 310 297 303 341 342 315 312 339 322 290 307 327 321 294 287 103 106 108 114 115 98 75 54 45 38 25 18 10 5 359 354 353 352 350 350 350 351 349 346 344 341 339 341 344 346 347 347 344 339 334 334 334 332 330 329 323 315 303 296 296 298 297 292 289 278 261 252 251 251 250 249 250 248 241
276 337 70 120 126 218 288 262 253 305 295 284 345 305 319 334 327 307 312 323 314 291 333 336 318 261 151 110 119 125 122 111 81 52 39 36 30 18 12 7 2 359 356 354 350 348 347 347 348 348 345 342 339 335 334 337 338 338 339 342 342 340 337 334 331 328 327 327 327 320 306 296 297 300 297 294 287 272 256 248 246 247 247 247 248 247
267 3 50 128 94 48 314 306 314 321 301 303 108 29 323 314 313 312 317 328 319 304 53 13 328 257 141 357 148 142 116 95 62 41 34 26 20 11 3 1 358 356 356 355 353 350 345 344 345 345 344 340 337 335 332 331 331 329 331 336 339 340 339 335 331 327 326 326 330 332 328 315 303 299 299 297 293 287 275 257 247 246 247 246 246 246
247 47 41 96 61 37 338 301 236 143 291 300 83 352 311 304 312 315 318 327 309 299 12 27 309 270 295 298 151 144 117 98 56 37 30 19 14 8 2 1 358 357 356 354 352 349 345 342 341 340 340 338 335 334 332 329 328 325 324 330 335 337 339 336 330 326 326 326 326 327 331 327 310 297 292 292 291 290 288 274 256 251 251 248 245 243
150 119 65 62 41 347 307 294 111 102 273 287 57 319 306 312 313 313 313 303 287 303 315 224 240 270 294 217 154 145 125 72 32 22 16 12 9 4 3 1 358 358 356 352 347 344 342 339 337 335 334 334 333 332 331 329 328 325 323 324 328 332 335 334 330 325 326 328 327 325 326 326 320 304 291 286 286 286 287 280 263 254 253 250 245 242
135 142 77 35 356 288 287 326 58 185 227 15 25 287 280 299 301 302 300 289 291 314 302 249 225 262 279 232 169 128 93 17 14 11 7 8 4 359 359 358 357 356 352 346 341 338 337 336 334 332 330 330 329 329 328 327 325 324 323 321 321 323 328 331 330 324 321 324 326 326 325 324 322 316 301 288 283 286 289 285 273 259 252 249 245 242
77 343 136 180 260 262 120 76 56 130 151 329 310 264 264 282 290 286 279 289 305 294 281 280 228 260 280 278 279 97 88 15 4 4 3 2 358 357 356 355 354 350 345 340 336 334 333 332 330 329 327 326 326 325 324 323 322 320 320 319 317 317 318 323 326 323 317 315 318 322 322 322 321 318 312 297 283 285 290 292 286 267 252 247 243 241
15 269 188 168 249 137 118 126 87 81 339 289 286 307 310 299 291 277 274 297 300 272 254 192 121 308 293 291 295 113 87 32 5 358 358 358 356 355 353 349 347 343 338 334 332 331 330 328 327 326 326 324 322 322 320 320 319 318 317 316 313 313 312 313 319 320 317 313 312 315 316 319 320 318 316 308 295 289 288 290 293 279 257 249 248 246
83 174 165 91 92 127 138 172 158 144 276 285 343 350 328 301 275 256 262 247 247 267 192 173 112 332 276 282 105 117 76 39 14 2 358 357 354 351 346 341 339 336 333 331 330 329 327 326 325 325 324 323 320 319 317 316 315 315 314 313 310 310 310 308 311 315 315 311 309 310 312 315 318 319 316 310 304 299 292 285 290 293 273 252 248 249
174 147 41 340 113 139 181 190 180 180 290 5 32 1 321 304 309 272 270 249 254 258 162 175 349 325 266 273 144 122 58 30 14 7 0 354 348 343 338 333 332 332 330 328 328 327 327 325 324 323 322 321 320 318 316 314 312 311 311 310 307 307 309 309 308 309 311 309 306 306 309 311 314 319 319 313 304 298 296 288 284 293 290 263 247 244
197 129 247 230 152 150 205 199 212 203 49 34 57 43 287 312 322 295 293 293 278 267 162 172 341 290 268 265 151 120 40 22 11 5 355 347 340 335 332 329 329 330 327 326 325 326 326 324 322 322 321 320 320 319 317 314 312 310 308 307 306 304 305 306 305 304 305 307 304 301 303 308 311 315 321 321 313 301 293 290 282 279 286 283 262 247
234 244 190 190 161 145 160 115 345 51 62 78 106 173 240 266 281 281 303 307 301 304 270 221 206 251 283 153 147 127 30 18 9 359 345 340 334 331 330 328 329 328 325 325 325 325 326 325 323 323 323 322 320 318 316 314 312 310 307 304 304 304 303 303 302 300 300 302 302 298 298 302 306 311 316 322 322 313 299 290 284 276 272 277 279 259
246 263 108 77 333 123 127 117 108 140 158 121 116 209 241 219 239 265 306 289 287 302 289 226 204 258 301 122 140 101 18 12 5 353 341 336 332 331 329 328 330 327 325 327 326 327 327 326 325 324 323 322 318 314 313 313 312 310 306 303 302 302 302 302 301 298 297 299 298 295 295 297 300 305 312 316 320 322 312 297 287 282 272 266 276 275
243 257 102 101 337 47 118 168 182 270 220 138 162 206 93 82 217 269 291 190 244 278 276 253 269 286 283 136 139 33 6 1 357 346 337 333 333 331 330 330 331 328 327 327 327 328 328 328 327 323 318 317 316 315 314 313 312 310 307 303 302 302 302 302 300 296 295 298 297 293 294 296 296 300 306 312 317 321 320 308 293 286 278 267 269 279
276 255 158 169 153 87 147 148 124 321 310 178 207 129 94 103 123 202 286 327 288 274 272 273 282 291 293 241 154 3 354 350 346 340 334 334 335 331 330 331 331 329 327 328 329 328 326 326 325 321 317 316 318 318 316 313 311 310 308 305 303 303 301 301 300 296 292 295 296 292 292 293 295 298 301 306 313 318 319 314 304 292 281 271 265 272
328 260 194 178 146 118 138 147 131 93 354 358 346 95 110 186 170 144 154 305 289 282 282 285 288 286 283 295 28 345 345 345 338 336 334 334 334 330 329 330 328 327 327 327 329 328 326 324 322 320 318 318 318 317 315 315 313 311 312 313 310 309 307 301 298 296 292 294 294 291 291 291 292 296 298 301 306 313 317 314 309 299 286 276 265 264
250 258 224 134 114 125 169 222 200 174 114 62 91 133 124 301 201 173 159 263 264 275 281 292 301 292 241 51 358 336 342 344 335 334 332 330 329 327 326 327 326 326 325 325 327 327 325 322 320 320 320 319 319 318 314 314 312 307 304 302 301 304 309 307 301 297 294 294 293 290 289 288 289 294 295 297 301 306 313 313 310 304 290 279 268 259
177 239 226 137 135 214 196 196 203 180 153 158 181 176 167 154 162 204 230 183 228 263 268 284 292 280 125 37 346 337 342 338 331 330 326 324 324 323 325 326 325 324 324 324 325 325 324 321 318 321 322 319 318 317 312 310 309 306 302 300 297 296 298 302 304 303 297 293 291 289 287 284 285 291 293 293 297 302 308 310 308 306 296 282 271 259
189 220 207 165 193 227 209 46 353 260 214 217 211 188 175 168 162 250 250 188 181 242 234 256 275 276 1 358 333 342 334 331 330 326 322 323 323 323 324 324 323 322 324 324 322 321 323 324 322 321 321 320 318 315 312 312 312 312 310 309 308 302 296 294 298 302 301 295 290 286 286 283 281 285 290 291 293 297 303 306 306 306 300 284 273 263
79 193 224 220 212 217 3 9 341 254 198 197 205 174 166 166 164 220 256 251 242 243 221 238 266 276 123 141 77 357 335 327 328 325 323 324 324 323 322 321 321 322 323 324 323 321 322 324 324 322 320 321 320 318 316 315 315 315 314 314 315 311 306 300 294 294 298 298 293 287 285 284 280 280 285 287 289 293 297 301 303 304 302 290 277 267
106 156 212 234 217 101 55 31 39 45 140 157 165 168 185 197 177 212 258 277 282 261 237 245 264 264 136 128 14 346 330 322 324 325 324 323 323 322 320 319 323 325 323 321 323 325 324 325 327 326 325 324 322 318 317 315 314 314 313 314 314 312 312 310 301 294 295 299 298 294 289 286 284 281 281 283 285 289 294 297 300 301 303 297 283 272
168 183 173 225 262 191 155 153 131 136 203 195 198 190 199 203 167 207 251 254 264 246 227 240 263 254 177 17 334 333 324 320 323 324 323 323 321 321 320 322 325 325 322 320 324 327 327 328 329 326 324 325 322 319 317 315 312 314 314 312 314 313 312 314 313 305 298 296 297 299 296 291 289 285 280 281 282 286 290 292 296 299 302 302 289 279
195 227 182 226 266 249 252 266 157 180 206 204 205 204 208 203 185 192 222 227 242 241 224 232 254 265 285 307 316 321 322 322 322 322 323 322 319 320 324 327 326 322 319 320 325 326 325 325 327 325 324 324 322 319 318 317 312 313 315 313 313 314 313 314 319 318 310 301 299 300 300 296 293 290 284 281 281 284 287 288 292 296 300 305 295 283
138 260 224 232 247 252 274 309 97 129 215 228 225 225 215 196 194 201 200 214 243 269 255 248 255 272 287 301 310 319 325 324 322 323 324 322 321 324 328 326 321 317 319 322 324 325 324 324 325 326 325 325 324 319 317 317 315 312 314 315 313 313 313 312 314 316 314 310 305 302 300 295 294 294 290 285 283 283 285 286 289 293 297 304 300 287
127 235 228 234 244 258 288 304 88 150 246 249 250 255 241 198 182 190 204 226 253 283 265 260 271 280 286 301 312 319 324 323 325 326 323 321 323 326 326 322 316 315 319 325 325 325 325 325 326 326 324 323 323 321 318 316 316 314 312 314 314 312 311 311 310 311 310 311 310 306 301 293 287 288 287 288 287 283 283 286 287 290 294 299 300 291
227 247 223 226 246 259 282 285 273 259 259 252 249 260 258 226 196 197 214 232 241 249 255 271 291 288 289 303 309 317 324 322 324 323 319 318 322 324 322 317 314 317 322 326 326 325 325 324 324 324 324 322 320 321 322 318 315 315 313 312 313 311 310 309 308 308 306 308 309 308 306 299 287 279 276 280 286 284 283 287 285 288 292 295 298 295
206 243 207 218 253 256 250 260 262 252 251 249 249 258 259 247 237 232 233 239 241 246 255 269 282 281 286 302 306 314 320 318 319 320 316 317 322 322 318 314 315 322 327 326 324 323 323 322 322 321 322 323 320 319 321 319 317 316 313 312 311 309 309 308 305 305 303 303 304 304 307 306 297 285 275 272 277 278 277 283 282 284 290 292 297 297
216 169 120 173 258 248 227 239 252 246 242 245 254 261 259 252 252 250 243 240 242 251 261 269 277 278 286 307 309 313 315 315 318 319 315 317 320 318 317 318 322 326 326 324 322 321 320 319 321 320 318 320 321 318 318 318 317 315 313 312 310 308 308 306 302 302 301 299 299 298 302 305 302 294 282 273 272 270 267 273 277 279 286 289 294 298
219 205 112 149 258 244 196 217 245 246 245 248 254 260 257 245 243 245 230 217 228 252 269 275 277 282 302 316 312 313 315 315 319 320 316 317 318 316 318 321 323 323 323 322 321 321 320 319 319 318 316 318 321 320 318 316 315 315 314 312 310 308 306 303 301 299 297 296 296 296 298 300 298 296 290 278 273 268 264 268 271 274 281 285 292 299
191 198 159 178 260 247 151 176 233 248 257 256 247 247 244 230 232 240 228 217 226 244 264 271 274 289 310 318 315 315 317 319 322 320 316 315 313 315 321 322 319 319 319 319 318 319 320 320 318 315 315 317 319 319 319 316 312 312 313 312 309 307 304 303 300 298 295 294 295 297 298 296 293 295 293 285 277 270 264 264 266 270 276 280 290 297
182 184 183 199 244 210 144 139 261 249 251 251 175 185 203 216 233 239 236 233 234 241 254 263 274 291 304 311 313 312 312 315 316 313 311 309 310 317 323 321 317 316 316 317 319 319 319 319 317 316 316 317 316 316 318 318 313 311 312 312 310 307 305 304 302 299 296 295 295 298 300 296 293 295 293 288 283 274 265 262 263 268 272 276 287 293
176 179 184 205 227 223 144 193 261 256 249 129 135 175 195 230 240 244 249 246 238 243 256 264 275 289 296 300 304 304 306 309 309 310 310 310 315 322 323 319 317 318 320 321 322 322 323 320 316 316 319 321 320 319 320 320 318 316 315 314 311 309 306 305 304 302 299 296 295 297 301 301 298 295 290 287 284 276 267 262 261 265 268 272 284 288
164 170 180 192 205 233 209 207 231 283 336 298 262 256 192 211 237 252 264 255 232 233 251 262 275 289 296 300 302 303 307 308 304 304 306 310 323 327 324 320 318 318 323 325 323 323 324 320 314 314 318 321 323 323 323 324 323 320 319 317 314 312 310 307 305 304 303 300 295 293 296 299 298 293 287 284 280 273 267 262 259 263 267 270 279 283
158 163 170 191 203 206 225 232 255 319 310 273 253 219 143 185 231 256 275 275 229 209 230 257 278 292 298 301 305 308 309 308 300 300 309 322 329 330 327 325 323 322 327 329 327 326 324 317 312 316 320 323 327 327 325 326 325 321 319 318 315 313 311 309 307 306 305 303 299 294 293 294 295 291 286 283 278 272 267 261 258 260 263 267 275 279
172 184 183 206 226 170 204 254 269 275 270 228 184 159 128 142 160 180 279 282 222 182 200 254 277 291 301 305 311 315 316 312 302 309 325 329 329 330 330 332 332 332 332 332 332 332 330 324 319 321 323 327 331 332 329 328 328 324 320 318 316 314 312 310 310 310 308 308 306 300 293 291 292 290 286 280 275 270 267 263 257 255 257 265 272 277
200 212 208 223 245 195 197 245 241 233 260 195 167 160 134 140 145 133 295 286 177 166 194 236 274 296 308 307 310 316 322 322 310 313 322 326 326 326 327 328 330 332 333 335 334 331 329 327 324 323 325 328 331 332 330 328 328 325 321 318 317 315 313 311 312 314 314 314 314 307 297 292 291 289 284 275 268 265 267 268 262 258 260 265 270 275
201 208 210 222 232 218 216 244 245 244 270 230 182 162 145 149 147 136 286 265 156 169 208 223 274 296 296 298 304 306 301 299 297 306 314 319 321 324 325 324 324 327 331 335 335 331 330 328 325 325 328 332 332 331 330 330 328 324 322 320 318 316 314 314 317 321 321 320 318 312 303 297 292 288 283 271 260 260 269 271 263 258 261 263 266 274
195 204 211 218 228 225 224 238 256 264 258 242 228 185 152 149 160 206 245 238 142 194 264 282 288 290 282 283 287 278 287 296 300 307 313 317 319 324 328 330 328 328 329 331 332 332 331 329 326 326 330 334 335 334 333 334 332 327 325 324 321 321 321 322 324 326 326 324 321 316 310 305 300 294 285 270 260 261 267 265 257 255 259 262 264 272
181 193 216 218 221 226 229 237 265 278 256 234 221 184 158 159 212 225 227 353 308 270 293 300 297 300 298 290 287 290 301 310 314 315 316 318 320 323 329 332 333 333 335 335 335 336 335 333 331 332 336 341 343 339 335 334 332 328 325 326 327 330 331 331 330 329 328 327 325 321 318 316 313 304 284 263 257 263 263 254 249 252 258 261 262 270
175 170 206 216 202 206 223 215 210 272 249 194 164 154 171 193 232 240 269 307 282 277 291 292 294 303 304 302 306 309 312 317 321 319 317 318 323 326 329 332 333 333 335 336 338 339 338 336 335 335 340 346 347 343 339 338 335 329 326 330 336 338 337 335 333 331 330 331 330 327 325 323 322 311 282 252 251 257 253 247 249 255 262 262 261 268
186 172 193 211 179 174 202 198 198 253 217 170 158 164 203 208 225 251 265 269 269 277 283 282 292 303 306 308 313 316 318 320 322 320 318 321 327 330 332 334 335 334 335 336 338 339 339 338 338 340 344 348 348 346 344 342 338 335 335 338 343 342 339 336 335 334 334 335 336 333 329 324 321 311 287 258 258 263 257 254 259 264 267 265 262 267
204 192 201 224 183 181 215 206 210 237 201 185 190 212 208 215 237 255 260 265 273 276 277 282 296 304 308 311 314 317 320 321 321 319 319 323 329 332 334 336 336 336 337 338 339 340 341 342 341 341 344 349 352 349 346 343 343 344 343 343 343 342 340 339 338 337 337 339 341 337 327 317 311 304 289 269 263 266 263 263 267 268 268 267 265 267
222 220 242 312 204 232 256 224 217 227 200 193 207 235 247 249 256 253 255 267 272 271 275 288 300 305 308 313 316 317 319 321 321 320 320 324 331 334 335 336 337 338 338 339 340 342 345 346 344 342 345 352 355 352 350 351 350 349 347 347 347 345 344 342 341 340 340 342 344 339 326 309 297 296 290 273 260 261 263 266 269 269 268 269 267 267
232 225 216 208 217 230 235 210 215 225 208 203 219 239 249 251 249 248 259 267 266 265 275 290 300 305 308 315 317 315 317 321 321 320 322 327 333 336 336 336 337 339 340 339 341 346 349 348 347 347 348 352 355 354 355 357 356 353 352 352 350 348 347 346 345 344 344 345 345 342 332 315 300 294 288 271 261 263 267 270 273 272 269 267 265 264
219 210 201 227 235 230 238 241 239 239 228 223 233 238 237 240 248 256 262 260 255 262 278 291 299 305 311 317 317 311 313 320 321 321 325 329 334 337 337 336 338 339 340 341 344 349 351 350 350 351 350 352 355 356 357 359 359 357 355 353 351 350 350 350 351 351 351 350 348 346 340 329 318 312 302 288 279 278 278 278 277 274 268 262 259 259
181 172 176 214 234 237 253 257 250 245 236 236 241 246 250 252 254 253 251 248 251 265 280 290 298 307 313 316 314 310 311 319 323 323 326 331 336 338 337 338 339 339 341 344 347 351 353 353 354 353 352 353 357 356 356 0 2 -0 356 354 355 356 353 351 353 356 358 359 356 351 345 338 333 327 318 309 301 295 291 287 281 277 271 262 255 254
189 175 177 196 228 236 238 237 230 219 227 237 240 245 248 247 243 238 237 243 255 271 282 288 295 307 311 311 312 310 312 321 327 327 328 333 337 339 340 341 341 341 344 347 348 352 357 357 356 355 354 355 357 356 357 2 4 1 358 358 359 360 357 353 353 356 0 4 3 360 356 350 345 338 330 323 317 310 302 294 284 278 274 268 261 256
205 190 186 200 225 234 234 233 226 222 236 249 247 241 235 234 234 234 239 251 265 276 282 286 296 307 309 310 311 310 313 324 331 331 333 337 340 341 343 345 345 344 347 349 351 354 358 358 357 357 357 357 357 357 359 3 4 2 0 0 2 3 2 358 356 356 359 3 4 4 2 357 352 346 338 331 327 323 317 307 295 285 277 271 266 260
Height
1525 1523 1522 1524 1526 1528 1529 1530 1530 1529 1529 1529 1528 1527 1524 1520 1515 1511 1508 1508 1510 1508 1505 1507 1510 1508 1503 1501 1506 1509 1508 1510 1513 1514 1515 1515 1515 1515 1513 1511 1509 1508 1506 1505 1503 1500 1497 1494 1490 1487 1484 1480 1476 1473 1470 1466 1462 1459 1456 1452 1448 1446 1443 1440 1437 1433 1430 1428 1425 1422 1419 1417 1415 1413 1412 1412 1413 1414 1414 1415 1416 1417 1416 1417 1420 1422
1525 1524 1526 1527 1530 1532 1531 1532 1532 1530 1530 1528 1527 1525 1520 1517 1514 1509 1508 1508 1509 1509 1504 1502 1506 1506 1501 1500 1506 1508 1507 1510 1513 1513 1515 1515 1514 1514 1513 1511 1509 1507 1506 1503 1500 1497 1495 1492 1489 1486 1482 1479 1475 1471 1469 1465 1462 1459 1455 1452 1447 1444 1441 1439 1435 1432 1428 1426 1424 1420 1417 1415 1412 1410 1409 1408 1409 1409 1410 1410 1411 1412 1412 1412 1415 1417
1526 1525 1528 1530 1532 1533 1533 1533 1532 1530 1529 1527 1525 1523 1519 1516 1513 1509 1507 1508 1510 1510 1503 1500 1505 1505 1500 1502 1507 1507 1507 1511 1513 1513 1514 1513 1512 1512 1511 1510 1507 1505 1502 1499 1497 1494 1492 1490 1488 1485 1482 1479 1475 1472 1469 1465 1461 1458 1455 1452 1447 1443 1440 1438 1434 1430 1427 1424 1422 1419 1415 1413 1410 1407 1406 1404 1404 1405 1405 1405 1406 1406 1407 1408 1411 1412
1529 1525 1529 1532 1533 1533 1532 1533 1532 1529 1526 1525 1525 1524 1521 1519 1520 1516 1510 1510 1511 1509 1505 1504 1505 1502 1499 1503 1508 1509 1510 1511 1512 1512 1511 1510 1510 1511 1510 1508 1505 1502 1499 1496 1495 1493 1491 1489 1487 1485 1481 1478 1475 1472 1468 1464 1460 1457 1455 1451 1447 1442 1438 1436 1433 1429 1425 1422 1419 1417 1413 1411 1407 1404 1403 1401 1400 1400 1400 1400 1401 1401 1402 1403 1405 1406
1529 1527 1530 1531 1532 1532 1531 1530 1530 1527 1523 1523 1527 1527 1525 1525 1526 1522 1516 1512 1507 1507 1509 1508 1502 1497 1496 1501 1505 1509 1509 1509 1510 1509 1508 1508 1509 1510 1508 1506 1504 1501 1498 1496 1494 1493 1490 1488 1485 1482 1480 1477 1474 1471 1466 1462 1459 1456 1453 1450 1446 1442 1437 1433 1430 1427 1423 1420 1417 1413 1409 1406 1404 1402 1400 1399 1396 1396 1396 1395 1394 1396 1398 1398 1399 1402
1528 1529 1531 1530 1531 1531 1530 1527 1528 1530 1525 1523 1528 1530 1530 1528 1526 1523 1519 1515 1509 1507 1510 1511 1510 1501 1493 1496 1502 1506 1507 1507 1508 1507 1507 1508 1508 1507 1505 1503 1502 1500 1498 1497 1495 1493 1491 1488 1485 1481 1479 1476 1473 1469 1465 1460 1457 1455 1452 1449 1445 1440 1435 1430 1428 1425 1422 1418 1415 1412 1407 1403 1400 1398 1397 1397 1395 1393 1392 1390 1390 1392 1394 1394 1395 1396
1529 1532 1532 1531 1531 1531 1530 1528 1528 1530 1527 1525 1528 1531 1531 1528 1526 1522 1521 1521 1517 1510 1508 1513 1519 1507 1492 1494 1500 1503 1505 1505 1506 1506 1506 1507 1506 1506 1504 1502 1500 1497 1495 1494 1492 1491 1489 1486 1483 1480 1478 1475 1471 1467 1463 1459 1456 1453 1449 1446 1443 1439 1433 1428 1425 1422 1420 1417 1414 1411 1407 1403 1399 1395 1394 1395 1393 1390 1389 1387 1386 1388 1389 1389 1390 1392
1531 1532 1532 1531 1531 1531 1529 1526 1529 1531 1528 1526 1529 1532 1530 1527 1525 1522 1522 1522 1517 1512 1510 1511 1516 1510 1496 1494 1496 1499 1502 1502 1503 1504 1504 1505 1505 1504 1503 1500 1498 1496 1494 1492 1491 1489 1487 1484 1481 1478 1475 1472 1469 1465 1461 1458 1454 1451 1447 1443 1440 1437 1432 1427 1423 1420 1418 1416 1413 1409 1406 1401 1397 1394 1391 1391 1389 1387 1386 1385 1384 1384 1384 1383 1385 1387
1530 1531 1531 1532 1531 1531 1528 1528 1531 1531 1528 1527 1530 1532 1529 1526 1525 1523 1522 1518 1514 1517 1515 1508 1510 1511 1499 1490 1492 1496 1500 1502 1503 1504 1504 1504 1505 1504 1501 1499 1497 1495 1494 1493 1491 1488 1485 1483 1480 1476 1473 1469 1466 1462 1459 1455 1452 1448 1445 1441 1437 1434 1430 1425 1421 1418 1416 1414 1411 1407 1403 1398 1395 1392 1389 1387 1386 1384 1382 1381 1380 1379 1379 1379 1380 1383
1530 1530 1531 1531 1530 1529 1529 1531 1532 1531 1529 1529 1530 1529 1526 1525 1522 1521 1520 1516 1518 1522 1517 1508 1508 1510 1500 1489 1491 1497 1501 1506 1505 1504 1505 1505 1505 1503 1500 1498 1496 1495 1494 1492 1489 1486 1483 1480 1477 1473 1469 1466 1462 1459 1456 1452 1449 1446 1441 1438 1434 1431 1427 1423 1419 1416 1413 1411 1407 1404 1400 1395 1392 1389 1387 1385 1383 1382 1379 1377 1376 1376 1375 1375 1376 1378
1530 1530 1530 1531 1530 1529 1530 1532 1531 1532 1531 1529 1529 1526 1523 1522 1519 1518 1517 1518 1524 1519 1510 1508 1510 1514 1510 1496 1493 1500 1504 1507 1506 1504 1504 1504 1502 1501 1499 1497 1496 1495 1493 1490 1487 1484 1480 1476 1473 1469 1465 1462 1458 1455 1452 1448 1445 1442 1438 1434 1430 1427 1423 1419 1416 1412 1409 1406 1403 1399 1396 1392 1389 1387 1385 1383 1380 1378 1377 1374 1372 1372 1372 1372 1372 1374
1530 1530 1529 1530 1530 1530 1530 1530 1530 1532 1531 1528 1527 1525 1525 1523 1519 1519 1517 1521 1526 1516 1507 1509 1511 1516 1513 1498 1497 1504 1505 1505 1505 1503 1503 1502 1501 1499 1498 1497 1496 1494 1491 1488 1484 1480 1477 1472 1468 1465 1462 1458 1455 1451 1448 1444 1440 1437 1433 1429 1425 1422 1418 1415 1412 1409 1405 1402 1398 1395 1392 1389 1386 1384 1383 1381 1378 1376 1373 1371 1369 1368 1368 1368 1367 1369
1527 1529 1530 1530 1530 1530 1529 1528 1528 1529 1528 1527 1526 1530 1532 1527 1523 1520 1516 1516 1514 1506 1505 1509 1512 1515 1504 1492 1497 1503 1503 1503 1503 1502 1503 1503 1502 1501 1499 1497 1495 1493 1489 1485 1482 1478 1474 1469 1464 1461 1457 1454 1450 1447 1444 1440 1436 1432 1428 1424 1420 1416 1413 1410 1407 1404 1401 1397 1394 1391 1388 1385 1382 1380 1380 1378 1376 1373 1370 1368 1365 1364 1363 1362 1362 1362
1525 1530 1532 1530 1528 1529 1528 1526 1525 1524 1526 1528 1528 1534 1535 1532 1534 1529 1516 1511 1507 1503 1504 1509 1518 1517 1498 1489 1496 1500 1501 1502 1501 1503 1505 1504 1504 1502 1499 1497 1494 1491 1487 1483 1479 1475 1472 1467 1462 1458 1454 1451 1447 1443 1439 1436 1432 1427 1422 1418 1415 1411 1408 1406 1402 1399 1396 1393 1389 1386 1383 1381 1378 1376 1376 1374 1372 1370 1367 1364 1361 1360 1359 1358 1358 1358
1524 1523 1526 1528 1526 1528 1528 1527 1527 1526 1528 1531 1531 1536 1535 1534 1537 1532 1521 1519 1518 1513 1510 1513 1520 1511 1493 1490 1496 1499 1501 1501 1501 1503 1505 1504 1503 1501 1498 1495 1492 1489 1485 1480 1476 1473 1470 1465 1459 1455 1451 1448 1444 1439 1434 1430 1427 1423 1417 1412 1408 1405 1402 1400 1397 1394 1391 1388 1384 1381 1378 1377 1375 1373 1371 1371 1369 1366 1363 1360 1358 1356 1355 1355 1355 1354
1528 1519 1523 1529 1527 1528 1529 1529 1531 1529 1529 1534 1536 1537 1535 1531 1531 1530 1529 1532 1536 1532 1518 1511 1507 1495 1488 1493 1496 1499 1500 1499 1501 1502 1502 1502 1501 1498 1496 1493 1490 1486 1481 1477 1473 1469 1467 1463 1458 1453 1448 1443 1438 1433 1428 1424 1421 1417 1412 1406 1402 1399 1396 1394 1391 1388 1385 1383 1380 1375 1373 1372 1371 1369 1367 1366 1365 1363 1360 1357 1354 1351 1351 1351 1350 1350
1526 1522 1528 1532 1529 1530 1530 1529 1531 1529 1527 1534 1537 1534 1533 1534 1533 1534 1536 1537 1544 1541 1516 1499 1497 1488 1488 1495 1496 1498 1498 1497 1500 1501 1500 1500 1498 1495 1492 1488 1485 1481 1476 1473 1469 1465 1462 1458 1454 1450 1444 1438 1433 1428 1422 1418 1415 1411 1406 1401 1396 1393 1390 1387 1385 1382 1379 1377 1375 1370 1368 1366 1365 1364 1363 1361 1360 1358 1356 1353 1350 1347 1346 1346 1346 1346
1524 1524 1528 1531 1529 1531 1532 1530 1531 1531 1530 1531 1532 1531 1533 1538 1538 1542 1550 1544 1539 1533 1509 1495 1498 1494 1489 1493 1495 1496 1497 1497 1498 1498 1497 1496 1494 1491 1487 1484 1482 1478 1473 1470 1466 1462 1458 1452 1448 1443 1437 1433 1429 1424 1418 1413 1409 1404 1400 1396 1392 1387 1384 1382 1379 1377 1374 1371 1369 1365 1362 1360 1359 1358 1357 1356 1354 1352 1351 1349 1346 1343 1341 1342 1341 1341
1529 1525 1525 1531 1531 1531 1533 1532 1530 1532 1533 1531 1530 1531 1534 1538 1538 1542 1554 1552 1541 1534 1517 1499 1497 1494 1487 1491 1496 1497 1497 1497 1497 1496 1494 1492 1490 1488 1484 1482 1479 1475 1472 1467 1462 1459 1455 1449 1443 1437 1432 1427 1422 1417 1412 1407 1403 1398 1394 1390 1386 1382 1379 1377 1374 1371 1369 1366 1363 1360 1357 1355 1353 1352 1351 1350 1349 1347 1345 1344 1342 1339 1337 1336 1337 1337
1532 1526 1524 1530 1533 1533 1533 1532 1529 1530 1533 1535 1534 1534 1534 1536 1537 1539 1545 1547 1544 1540 1528 1510 1500 1493 1488 1492 1499 1498 1497 1498 1498 1496 1494 1491 1490 1487 1484 1481 1477 1473 1469 1464 1460 1456 1451 1446 1438 1432 1428 1423 1417 1411 1406 1401 1396 1392 1388 1384 1380 1377 1374 1372 1369 1366 1363 1360 1357 1354 1351 1349 1347 1346 1345 1345 1344 1342 1340 1339 1337 1335 1333 1331 1332 1333
1532 1529 1525 1529 1535 1533 1528 1526 1525 1525 1530 1533 1532 1533 1536 1536 1538 1541 1542 1542 1543 1540 1533 1525 1509 1491 1489 1495 1497 1497 1498 1499 1499 1496 1494 1492 1489 1487 1484 1480 1475 1471 1467 1462 1457 1453 1447 1441 1434 1427 1423 1418 1412 1406 1400 1395 1390 1384 1379 1375 1372 1370 1369 1366 1363 1361 1358 1355 1352 1349 1346 1344 1342 1341 1340 1339 1338 1336 1334 1333 1331 1329 1328 1326 1326 1327
1530 1528 1527 1529 1532 1528 1523 1527 1528 1526 1528 1529 1526 1527 1532 1535 1539 1544 1541 1538 1543 1541 1534 1532 1516 1493 1490 1496 1495 1497 1499 1498 1498 1497 1493 1490 1488 1484 1481 1478 1474 1469 1464 1460 1454 1448 1442 1436 1430 1424 1417 1411 1405 1399 1393 1388 1382 1376 1371 1368 1364 1362 1361 1360 1356 1354 1352 1349 1347 1344 1341 1338 1337 1336 1334 1333 1332 1331 1329 1327 1325 1323 1322 1321 1320 1321
1530 1531 1529 1527 1526 1526 1528 1530 1530 1529 1527 1527 1527 1526 1529 1534 1537 1542 1539 1534 1538 1537 1530 1531 1522 1498 1490 1495 1495 1496 1497 1496 1497 1496 1492 1489 1486 1482 1479 1475 1472 1467 1462 1456 1449 1443 1437 1431 1427 1420 1413 1406 1400 1394 1388 1381 1376 1372 1367 1363 1359 1356 1354 1351 1348 1347 1346 1343 1340 1338 1336 1333 1331 1330 1329 1328 1326 1325 1324 1322 1319 1318 1316 1315 1314 1314
1531 1532 1530 1525 1522 1527 1533 1531 1528 1528 1527 1526 1527 1528 1530 1531 1531 1535 1535 1533 1537 1535 1530 1534 1525 1500 1489 1493 1494 1495 1496 1496 1496 1495 1492 1489 1485 1482 1478 1472 1468 1464 1458 1451 1443 1437 1432 1426 1422 1416 1409 1401 1395 1389 1384 1377 1372 1368 1363 1358 1354 1350 1348 1344 1341 1340 1339 1337 1334 1331 1330 1327 1325 1324 1323 1322 1321 1320 1319 1317 1315 1313 1311 1310 1309 1308
1526 1525 1526 1525 1521 1523 1527 1528 1528 1529 1527 1525 1525 1526 1528 1528 1531 1535 1535 1537 1541 1533 1527 1533 1522 1495 1486 1490 1491 1494 1496 1495 1495 1494 1492 1489 1484 1479 1474 1469 1465 1460 1452 1445 1439 1433 1427 1421 1416 1412 1405 1398 1391 1385 1379 1374 1368 1362 1358 1355 1350 1345 1342 1338 1335 1333 1332 1330 1327 1325 1323 1321 1320 1318 1317 1316 1315 1315 1314 1312 1310 1308 1306 1304 1302 1301
1524 1521 1521 1521 1519 1516 1513 1514 1519 1523 1524 1524 1524 1526 1528 1528 1532 1536 1537 1541 1539 1526 1522 1524 1511 1490 1484 1488 1490 1493 1495 1493 1493 1492 1489 1487 1482 1476 1471 1466 1461 1455 1448 1442 1438 1432 1425 1418 1411 1407 1402 1395 1389 1382 1375 1369 1364 1358 1353 1350 1347 1342 1338 1334 1330 1327 1325 1323 1321 1319 1317 1316 1314 1312 1311 1310 1309 1309 1309 1307 1305 1303 1301 1298 1296 1295
1527 1525 1519 1515 1512 1509 1505 1507 1515 1520 1521 1522 1523 1524 1526 1528 1530 1533 1537 1538 1530 1523 1520 1511 1500 1494 1491 1490 1490 1491 1492 1492 1490 1488 1486 1483 1478 1472 1468 1465 1459 1453 1447 1441 1437 1431 1424 1415 1407 1401 1396 1391 1385 1379 1373 1366 1361 1355 1349 1345 1342 1338 1334 1331 1327 1324 1321 1318 1315 1312 1311 1310 1309 1307 1306 1305 1304 1303 1303 1302 1299 1298 1296 1293 1292 1291
1527 1526 1520 1516 1513 1509 1508 1512 1516 1519 1519 1520 1522 1520 1520 1525 1528 1531 1534 1528 1522 1525 1518 1499 1495 1499 1493 1489 1490 1490 1491 1491 1488 1486 1483 1478 1474 1471 1467 1462 1455 1449 1443 1438 1433 1427 1421 1412 1404 1396 1390 1384 1379 1374 1370 1364 1358 1352 1346 1340 1337 1334 1331 1327 1323 1320 1317 1313 1310 1307 1305 1304 1303 1301 1300 1299 1298 1297 1295 1294 1293 1291 1290 1288 1287 1287
1526 1524 1519 1519 1519 1515 1515 1516 1516 1517 1518 1517 1519 1517 1515 1520 1524 1527 1527 1522 1521 1523 1511 1496 1497 1498 1491 1489 1489 1488 1490 1490 1488 1485 1481 1476 1473 1469 1464 1458 1450 1444 1439 1435 1429 1424 1418 1410 1402 1393 1385 1379 1374 1369 1364 1359 1354 1348 1343 1337 1333 1330 1327 1324 1320 1316 1313 1309 1306 1303 1300 1299 1297 1295 1294 1292 1292 1291 1289 1287 1285 1284 1284 1283 1283 1282
1524 1523 1520 1522 1522 1519 1519 1518 1516 1517 1517 1516 1516 1513 1511 1515 1516 1517 1518 1516 1515 1512 1503 1498 1500 1494 1489 1489 1487 1487 1490 1489 1487 1485 1479 1474 1471 1466 1460 1453 1446 1441 1438 1432 1426 1421 1415 1407 1399 1391 1383 1376 1370 1365 1359 1354 1349 1344 1339 1334 1330 1327 1324 1321 1317 1313 1309 1306 1302 1299 1295 1292 1290 1289 1287 1285 1285 1284 1282 1280 1279 1278 1278 1278 1278 1277
1524 1522 1522 1524 1526 1522 1518 1518 1517 1517 1517 1517 1515 1509 1507 1511 1510 1509 1511 1510 1510 1506 1499 1497 1497 1490 1486 1487 1486 1486 1488 1486 1485 1482 1477 1473 1468 1462 1457 1450 1445 1441 1437 1431 1425 1418 1411 1402 1394 1386 1379 1373 1368 1362 1356 1350 1344 1339 1335 1331 1327 1323 1320 1318 1314 1309 1306 1302 1298 1295 1292 1287 1284 1282 1280 1278 1277 1276 1276 1276 1274 1274 1273 1273 1273 1272
1522 1524 1524 1526 1526 1519 1516 1520 1519 1517 1518 1519 1516 1507 1503 1506 1505 1502 1503 1503 1503 1501 1497 1496 1494 1487 1484 1485 1484 1484 1483 1481 1479 1477 1473 1469 1464 1458 1454 1449 1445 1441 1436 1431 1424 1417 1408 1399 1390 1382 1376 1370 1364 1358 1353 1346 1340 1335 1330 1326 1322 1319 1316 1313 1309 1304 1300 1297 1294 1291 1287 1283 1280 1276 1273 1271 1269 1269 1270 1271 1270 1270 1269 1269 1268 1267
1521 1523 1525 1527 1525 1519 1518 1522 1522 1522 1524 1517 1506 1498 1496 1497 1497 1496 1496 1497 1497 1496 1495 1494 1490 1483 1482 1484 1483 1479 1477 1476 1474 1471 1469 1465 1461 1457 1454 1449 1443 1439 1435 1431 1424 1416 1407 1398 1390 1383 1375 1368 1361 1355 1350 1344 1336 1331 1326 1322 1318 1315 1312 1308 1304 1299 1293 1290 1288 1285 1281 1278 1274 1270 1267 1264 1262 1262 1264 1265 1265 1265 1265 1264 1263 1262
1521 1523 1524 1523 1523 1522 1523 1525 1525 1525 1519 1502 1489 1488 1491 1492 1493 1493 1493 1492 1491 1490 1489 1487 1484 1482 1484 1484 1482 1479 1475 1473 1473 1469 1465 1463 1460 1456 1452 1448 1441 1435 1431 1426 1421 1414 1405 1396 1388 1380 1373 1367 1360 1352 1346 1341 1334 1328 1323 1318 1314 1311 1307 1301 1296 1292 1287 1283 1280 1278 1275 1272 1268 1265 1261 1257 1256 1255 1257 1258 1259 1260 1260 1259 1259 1257
1520 1523 1523 1522 1523 1524 1526 1529 1526 1514 1499 1489 1487 1489 1490 1491 1491 1491 1490 1487 1487 1487 1485 1483 1482 1483 1484 1483 1482 1480 1475 1472 1471 1466 1461 1460 1459 1455 1451 1446 1439 1432 1425 1419 1415 1410 1402 1393 1385 1376 1369 1363 1357 1350 1342 1337 1331 1324 1318 1314 1310 1305 1301 1295 1289 1285 1281 1277 1273 1270 1268 1265 1261 1258 1255 1252 1250 1249 1250 1251 1253 1254 1254 1254 1254 1252
1517 1521 1521 1522 1525 1525 1523 1521 1513 1498 1489 1488 1489 1486 1488 1490 1489 1489 1487 1482 1481 1482 1481 1481 1481 1480 1481 1480 1479 1477 1473 1468 1465 1460 1456 1455 1454 1451 1448 1443 1437 1431 1423 1416 1411 1407 1400 1392 1384 1376 1368 1360 1353 1347 1339 1332 1326 1319 1312 1308 1304 1299 1294 1289 1283 1279 1274 1270 1267 1264 1262 1258 1255 1253 1250 1247 1245 1244 1244 1245 1247 1248 1249 1250 1249 1248
1513 1517 1520 1522 1521 1520 1519 1511 1500 1495 1492 1488 1484 1483 1484 1485 1485 1486 1485 1479 1476 1478 1479 1479 1479 1478 1478 1477 1476 1475 1471 1465 1458 1452 1451 1450 1447 1444 1441 1438 1434 1429 1422 1415 1409 1404 1399 1392 1384 1375 1367 1358 1351 1344 1336 1329 1323 1316 1308 1302 1298 1293 1288 1283 1277 1272 1268 1264 1261 1258 1256 1253 1250 1247 1245 1242 1240 1239 1239 1240 1241 1243 1245 1246 1245 1244
1511 1513 1516 1519 1515 1513 1518 1513 1504 1501 1494 1481 1478 1480 1480 1482 1483 1485 1486 1480 1473 1475 1477 1477 1477 1476 1474 1474 1473 1472 1469 1462 1452 1446 1444 1443 1440 1436 1434 1431 1428 1425 1419 1412 1404 1398 1393 1388 1380 1372 1364 1355 1347 1341 1335 1327 1320 1313 1305 1299 1294 1288 1283 1277 1271 1266 1262 1257 1254 1251 1249 1247 1244 1241 1239 1237 1235 1234 1234 1236 1237 1238 1240 1242 1241 1239
1512 1511 1512 1516 1513 1510 1514 1511 1502 1497 1487 1475 1475 1478 1480 1483 1483 1484 1487 1479 1469 1471 1475 1474 1473 1472 1471 1471 1470 1468 1467 1463 1452 1443 1441 1440 1437 1434 1431 1428 1425 1421 1416 1409 1403 1396 1389 1382 1375 1368 1361 1353 1344 1337 1332 1324 1317 1310 1302 1296 1291 1285 1278 1272 1266 1260 1255 1250 1245 1243 1241 1240 1238 1235 1233 1232 1230 1229 1230 1232 1233 1235 1237 1238 1237 1236
1511 1511 1511 1513 1510 1507 1509 1506 1495 1488 1480 1474 1475 1478 1481 1482 1482 1488 1490 1476 1465 1469 1472 1470 1470 1469 1468 1469 1468 1466 1465 1461 1453 1445 1442 1440 1436 1433 1430 1427 1423 1419 1413 1406 1400 1394 1387 1379 1371 1363 1357 1350 1342 1334 1328 1321 1313 1307 1300 1293 1287 1281 1274 1268 1261 1255 1249 1243 1239 1235 1232 1232 1231 1229 1228 1226 1225 1225 1227 1228 1230 1232 1234 1235 1234 1233
1507 1507 1507 1507 1504 1502 1503 1502 1495 1485 1476 1472 1474 1477 1479 1482 1485 1488 1482 1467 1463 1468 1468 1465 1467 1466 1465 1466 1465 1462 1459 1456 1452 1446 1441 1439 1435 1430 1426 1423 1419 1415 1410 1405 1400 1394 1386 1378 1370 1361 1354 1348 1340 1332 1326 1318 1309 1302 1296 1289 1283 1276 1270 1263 1256 1249 1243 1237 1233 1228 1225 1224 1224 1223 1222 1222 1222 1222 1223 1225 1227 1229 1231 1232 1231 1231
1501 1504 1503 1500 1500 1499 1495 1497 1498 1487 1470 1465 1470 1473 1477 1481 1479 1472 1464 1460 1462 1464 1463 1463 1463 1462 1461 1461 1460 1457 1452 1449 1447 1443 1438 1436 1433 1427 1423 1419 1414 1408 1404 1399 1394 1389 1382 1374 1366 1357 1350 1343 1337 1330 1323 1316 1307 1299 1293 1286 1279 1272 1264 1257 1251 1244 1238 1232 1227 1223 1219 1218 1218 1218 1218 1218 1219 1219 1220 1222 1224 1226 1228 1228 1228 1228
1486 1494 1496 1489 1489 1493 1494 1498 1502 1488 1464 1458 1466 1471 1473 1473 1466 1459 1458 1460 1461 1460 1460 1461 1459 1458 1458 1456 1454 1452 1448 1444 1442 1440 1436 1433 1430 1426 1422 1417 1411 1405 1400 1394 1389 1383 1377 1369 1361 1353 1345 1338 1332 1326 1321 1314 1305 1297 1291 1283 1275 1267 1260 1253 1246 1240 1233 1228 1222 1218 1215 1214 1215 1215 1215 1216 1217 1218 1218 1219 1222 1223 1224 1225 1225 1225
1474 1480 1481 1475 1476 1485 1488 1486 1482 1470 1456 1455 1460 1461 1461 1460 1457 1456 1458 1458 1457 1457 1457 1457 1457 1456 1454 1452 1450 1448 1444 1441 1439 1436 1433 1430 1426 1423 1418 1413 1409 1403 1397 1392 1386 1381 1375 1367 1358 1349 1340 1334 1329 1323 1317 1311 1303 1295 1287 1279 1270 1263 1256 1249 1242 1236 1230 1224 1219 1216 1214 1213 1214 1214 1214 1215 1216 1217 1217 1218 1220 1221 1221 1221 1222 1221
1464 1463 1465 1463 1464 1468 1467 1462 1459 1455 1454 1455 1454 1452 1454 1455 1455 1456 1456 1455 1455 1456 1455 1455 1455 1453 1451 1449 1447 1445 1442 1440 1437 1434 1431 1427 1423 1420 1415 1411 1406 1400 1394 1389 1384 1378 1372 1365 1358 1349 1338 1330 1326 1320 1314 1309 1301 1292 1283 1275 1268 1261 1253 1245 1239 1232 1227 1222 1218 1215 1214 1213 1213 1212 1212 1213 1214 1215 1216 1217 1217 1218 1218 1219 1219 1219
1455 1457 1459 1459 1459 1457 1455 1453 1453 1453 1453 1453 1452 1451 1452 1453 1453 1453 1453 1453 1453 1453 1453 1453 1452 1450 1448 1447 1444 1443 1441 1438 1435 1432 1429 1424 1421 1417 1413 1408 1403 1398 1392 1386 1380 1376 1369 1362 1355 1348 1337 1328 1322 1317 1311 1306 1298 1289 1280 1272 1265 1259 1252 1244 1237 1230 1224 1220 1217 1216 1214 1213 1211 1210 1210 1211 1212 1213 1214 1215 1215 1216 1216 1217 1217 1217
1454 1456 1457 1457 1457 1456 1452 1449 1448 1449 1450 1451 1452 1450 1450 1451 1451 1451 1451 1452 1451 1451 1451 1451 1449 1448 1446 1444 1442 1441 1439 1437 1434 1430 1426 1422 1418 1414 1410 1405 1400 1395 1390 1384 1378 1372 1366 1358 1351 1344 1335 1325 1319 1315 1308 1301 1295 1288 1279 1271 1263 1256 1250 1243 1236 1229 1223 1219 1217 1216 1215 1213 1211 1209 1209 1209 1210 1211 1211 1212 1212 1213 1213 1214 1215 1215
1450 1452 1455 1455 1453 1450 1448 1445 1444 1445 1447 1449 1449 1448 1447 1448 1448 1448 1449 1449 1449 1449 1449 1448 1447 1445 1443 1442 1440 1439 1437 1436 1433 1428 1424 1420 1416 1412 1408 1403 1398 1393 1388 1383 1377 1371 1365 1358 1350 1343 1335 1326 1319 1313 1307 1299 1292 1285 1278 1271 1263 1255 1247 1242 1236 1229 1224 1220 1217 1216 1214 1213 1211 1209 1208 1208 1208 1208 1209 1209 1209 1209 1209 1210 1212 1212
1446 1448 1450 1450 1448 1447 1446 1443 1442 1443 1445 1445 1444 1444 1444 1445 1445 1446 1447 1447 1447 1447 1447 1445 1444 1443 1441 1440 1439 1436 1435 1434 1431 1427 1423 1418 1414 1411 1406 1401 1396 1392 1386 1381 1376 1370 1364 1358 1351 1344 1337 1328 1320 1314 1307 1299 1292 1285 1278 1271 1263 1254 1247 1241 1235 1230 1225 1220 1217 1215 1213 1211 1210 1208 1207 1206 1205 1205 1205 1205 1205 1205 1206 1207 1208 1209
1443 1443 1444 1446 1447 1445 1440 1437 1437 1441 1441 1439 1438 1440 1440 1441 1442 1443 1444 1444 1445 1444 1444 1443 1442 1441 1440 1438 1437 1434 1432 1431 1428 1425 1421 1417 1413 1409 1404 1399 1395 1390 1385 1381 1375 1369 1364 1358 1352 1345 1338 1329 1322 1315 1307 1298 1292 1286 1279 1271 1263 1255 1248 1242 1235 1230 1225 1220 1217 1215 1211 1209 1208 1207 1206 1204 1203 1202 1201 1200 1201 1202 1202 1203 1205 1206
1434 1435 1437 1439 1438 1434 1430 1430 1433 1436 1435 1433 1434 1436 1437 1438 1440 1440 1441 1442 1442 1441 1440 1440 1439 1438 1437 1436 1434 1432 1430 1428 1425 1422 1418 1415 1412 1407 1403 1399 1393 1388 1384 1379 1374 1367 1362 1357 1352 1346 1339 1331 1323 1316 1307 1299 1293 1287 1280 1273 1265 1257 1251 1244 1238 1232 1226 1222 1219 1216 1212 1209 1207 1205 1203 1202 1200 1199 1197 1197 1197 1197 1198 1199 1200 1202